Content
SEND FEEDBACK

Daily
Averages
Monthly
Summary
United States of America

PYGA BEACH, GUAM


Home > North America > United States > Guam
Elevation: 20 feet     Latitude: 13 17N     Longitude: 144 39E

WEATHER
 
SELECT A DAY
Number of Records: 341,631;   Date Range: 1/1/95 - 7/20/14
 
SHARE

PRINT THIS DATA

[ ← Previous Day ]
WEATHER ALMANAC - AUGUST 28, 2013
[ Next Day → ]
[ °C ]   °F
Weather ElementAverageHighLow
Temperature81.5 °F86.2 °F (12:58 pm)75.6 °F (3:58 am)
Dewpoint75.5 °F77 °F (3:33 pm)73.2 °F (4:58 am)
Humidity82.4 %94 % (3:58 am)70 % (12:58 pm)
Barometer29.89 in29.94 in (9:58 pm)29.84 in (2:58 pm)
Wind Speed3.7 mph11.5 mph (2:58 pm)
Weather ElementAverage
Visibility10 mi
Wind DirectionENE (76.8 °)

Weather ElementTotal
Precipitation---
Cooling Degree Days15.9 (Base 65)
Growing Degree Days30.9 (Base 50)
Averaged from 25 records on August 28, 2013
WEATHER CONDITIONS BREAKOUT
WIND DIRECTION BREAKOUT
WEATHER BY HOUR - AUGUST 28, 2013
[ °C ]   °F
Local TimeTemperatureDewpointHumidityBarometerVisibilityWind DirectionWind SpeedGust SpeedPrecipitationEventsConditions
1:58 AM76.8 °F74.1 °F91 %29.90 in10.0 miCalmClear
2:58 AM76.5 °F74.1 °F92 %29.88 in10.0 miCalmClear
3:58 AM75.6 °F73.8 °F94 %29.88 in10.0 miWNW (290°)3.5 mphClear
4:58 AM75.7 °F73.2 °F92 %29.89 in10.0 miCalmClear
5:58 AM76.1 °F73.9 °F93 %29.89 in10.0 miCalmClear
6:58 AM77.4 °F74.8 °F92 %29.91 in10.0 miCalmClear
7:58 AM81.3 °F76.3 °F85 %29.92 in10.0 miCalmClear
8:58 AM83.5 °F75.4 °F76 %29.93 in10.0 miNE (50°)2.3 mphScattered Clouds
9:58 AM84.9 °F75.4 °F73 %29.92 in10.0 miESE (120°)4.6 mphClear
10:58 AM85.8 °F75.6 °F71 %29.92 in10.0 miSE (130°)6.9 mphClear
11:58 AM85.6 °F75.6 °F72 %29.89 in10.0 miESE (110°)9.2 mphPartly Cloudy
12:58 PM86.2 °F75.4 °F70 %29.87 in10.0 miSSE (150°)8.1 mphScattered Clouds
1:58 PM85.6 °F76.6 °F74 %29.86 in10.0 miESE (120°)10.4 mphPartly Cloudy
2:58 PM85.8 °F76.8 °F74 %29.84 in10.0 miSE (140°)11.5 mphClear
3:33 PM86.0 °F77.0 °F74 %29.85 in10.0 miSSE (160°)6.9 mphMostly Cloudy
3:38 PM86.0 °F77.0 °F74 %29.84 in10.0 miSSE (160°)6.9 mphMostly Cloudy
3:58 PM85.1 °F76.8 °F76 %29.84 in10.0 miSSE (160°)9.2 mphScattered Clouds
4:58 PM84.9 °F75.4 °F73 %29.85 in10.0 miSouth (170°)9.2 mphClear
5:58 PM82.9 °F74.8 °F76 %29.88 in10.0 miSSE (160°)4.6 mphClear
6:58 PM81.5 °F76.1 °F84 %29.90 in10.0 miCalmClear
7:58 PM79.5 °F76.6 °F91 %29.90 in10.0 miCalmClear
8:58 PM79.0 °F76.5 °F92 %29.92 in10.0 miCalmClear
9:58 PM78.8 °F76.1 °F91 %29.94 in10.0 miCalmClear
10:58 PM78.8 °F75.6 °F90 %29.94 in10.0 miCalmClear
11:58 PM78.8 °F75.2 °F89 %29.92 in10.0 miCalmClear
Hourly data recorded from PGUA, located miles away from Pyga Beach, Guam







STORIES FROM OUR PARTNERS